[[{"header":{"parameterUnit":"m.s-1","parameterCategory":1,"la1":30.2991,"la2":30.254,"lo1":-89.0895,"lo2":-89.0444,"dy":0.0017,"dx":0.0017,"nx":28,"ny":28,"refTime":"2025-09-08T21:00:00:Z","depth":0,"parameterNumber":2,"parameterNumberName":"U-component_of_WINDS"},"data":[0,0,0,0,0,0,0,0,0,0,0,0,0,0,0,0,0,0,0,0,0,0,0,0,0,0,0,0,0,0,0,0,0,0,0,0,0,0,0,0,0,0,0,0,0,0,0,0,0,0,0,0,0,0,0,0,0,0,-3.5489,-3.5489,0,-3.5526,-3.5526,-3.5526,-3.5453,-3.5451,-3.5448,-3.5446,-3.5487,-3.5491,-3.5494,0,0,0,0,0,0,0,0,0,0,0,0,0,-3.536,-3.5363,-3.5489,-3.5489,-3.549,-3.5526,-3.5526,-3.5527,-3.5454,-3.5451,-3.5448,-3.5445,-3.5486,-3.549,-3.5494,0,0,0,0,0,0,0,0,0,0,0,0,0,-3.5408,-3.5363,-3.5489,-3.5457,-3.5455,-3.5525,-3.5526,-3.5527,-3.5454,-3.5451,-3.5447,-3.5444,-3.5485,-3.549,-3.5495,-3.5598,0,0,-3.551,-3.5512,0,0,0,0,0,0,0,0,-3.5406,-3.5413,-3.5462,-3.546,-3.5457,-3.5481,-3.5496,-3.5551,-3.5455,-3.5455,-3.5446,-3.5442,-3.5489,-3.5493,-3.5508,-3.56,-3.5602,-3.5511,-3.5514,-3.5516,-3.5517,0,0,0,0,0,0,0,-3.5402,-3.5411,-3.5503,-3.5462,-3.546,-3.5443,-3.5446,-3.5506,-3.5492,-3.5454,-3.5449,-3.5454,-3.5487,-3.5503,-3.5508,-3.5603,-3.5511,-3.5515,-3.5518,-3.552,-3.5784,-3.5788,0,0,0,0,0,0,-3.5402,-3.5409,-3.5502,-3.5504,-3.5422,-3.5449,-3.5452,-3.5477,-3.5491,-3.5489,-3.5457,-3.5451,-3.5497,-3.5503,-3.551,-3.5633,-3.5516,-3.5521,-3.5523,-3.578,-3.5785,-3.579,0,0,0,0,0,0,-3.54,-3.5411,-3.5501,-3.5455,-3.5465,-3.5455,-3.5484,-3.548,-3.5496,-3.5493,-3.549,-3.5477,-3.5494,-3.5503,-3.5577,-3.5633,-3.5523,-3.5527,-3.5776,-3.5782,-3.5787,-3.588,0,0,0,0,0,0,-3.5396,-3.5411,-3.5449,-3.5457,-3.5468,-3.5566,-3.5487,-3.5483,-3.5505,-3.5496,-3.551,-3.5509,-3.5492,-3.557,-3.5582,-3.5638,-3.5531,-3.5771,-3.5778,-3.5785,-3.5872,-3.5888,-3.5902,0,0,0,0,0,-3.5392,-3.5474,-3.5451,-3.5463,-3.5515,-3.557,-3.5576,-3.5553,-3.5509,-3.5548,-3.5547,-3.5509,-3.5625,-3.5578,-3.5591,-3.565,-3.5767,-3.5776,-3.5785,-3.5865,-3.5885,-3.5902,0,0,0,0,0,0,-3.5473,-3.5474,-3.5449,-3.5535,-3.5553,-3.5557,-3.5605,-3.5575,-3.5607,-3.5598,-3.5569,-3.5573,-3.5654,-3.5659,-3.5607,-3.5752,-3.5689,-3.5701,-3.5745,-3.5764,-3.578,-3.5777,-3.5535,0,0,0,0,0,-3.5501,-3.5544,-3.5543,-3.5619,-3.5629,-3.5616,-3.5639,-3.562,-3.5638,-3.5645,-3.5649,-3.5668,-3.571,-3.5737,-3.5775,-3.5872,-3.5876,-3.5919,-3.5935,-3.5947,-3.5958,-3.6012,-3.6032,-3.5819,-3.5819,-3.5819,0,0,-3.5559,-3.5565,-3.5594,-3.5636,-3.5647,-3.5694,-3.5623,-3.5675,-3.571,-3.5653,-3.5724,-3.5728,-3.5748,-3.5835,-3.5874,-3.5842,-3.6018,-3.5959,-3.5969,-3.5973,-3.6024,-3.6044,-3.6062,-3.5825,-3.5824,-3.5823,0,0,-3.5689,-3.5697,-3.5762,-3.5776,-3.5794,-3.5785,-3.5801,-3.581,-3.581,-3.588,-3.584,-3.5882,-3.5953,-3.5969,-3.5987,-3.6126,-3.6094,-3.614,-3.622,-3.6273,-3.629,-3.6305,-3.6356,-3.6374,-3.615,-3.6151,-3.6151,0,-3.576,-3.5827,-3.58,-3.5856,-3.5876,-3.5827,-3.5894,-3.5908,-3.5938,-3.5954,-3.5918,-3.6008,-3.6018,-3.6109,-3.6143,-3.6159,-3.6178,-3.6138,-3.6289,-3.6304,-3.6317,-3.6366,-3.6385,-3.6156,-3.6155,-3.6155,-3.6154,0,-3.5913,-3.5961,-3.6012,-3.6042,-3.6068,-3.6129,-3.6113,-3.6144,-3.6123,-3.6119,-3.6192,-3.6203,-3.6243,-3.6263,-3.6243,-3.6353,-3.6333,-3.6294,-3.623,-3.6344,-3.6389,-3.6407,-3.6164,-3.6162,-3.616,-3.6159,0,0,-3.6094,-3.611,-3.6129,-3.6143,-3.616,-3.6197,-3.6257,-3.6295,-3.6323,-3.6346,-3.6397,-3.6459,-3.6424,-3.6444,-3.6426,-3.6473,-3.6585,-3.6428,-3.6429,-3.6458,-3.6708,-3.6738,-3.676,-3.6563,-3.6567,-3.6569,-3.6707,0,-3.6224,-3.6326,-3.6304,-3.6405,-3.645,-3.6405,-3.6457,-3.6475,-3.6473,-3.6512,-3.6511,-3.6556,-3.6505,-3.6517,-3.6561,-3.6562,-3.6635,-3.6552,-3.6612,-3.6615,-3.6609,-3.6783,-3.6814,-3.6943,-3.6724,-3.6727,-3.6729,0,-3.6388,-3.6418,-3.6523,-3.6535,-3.6553,-3.66,-3.6634,-3.6672,-3.6692,-3.6688,-3.6712,-3.6686,-3.6748,-3.6683,-3.6769,-3.6713,-3.6737,-3.6742,-3.6746,-3.6751,-3.6679,-3.6794,-3.6984,-3.7004,-3.6757,-3.6754,-3.6752,0,-3.6512,-3.6577,-3.6649,-3.6662,-3.6677,-3.6712,-3.6721,-3.6737,-3.6762,-3.6793,-3.6809,-3.6847,-3.6868,-3.6899,-3.6885,-3.6839,-3.6975,-3.6909,-3.6975,-3.6975,-3.7005,-3.7004,-3.7203,-3.702,-3.7019,-3.7019,-3.7019,0,-3.6659,-3.6725,-3.6704,-3.6749,-3.6823,-3.6798,-3.6873,-3.6876,-3.6892,-3.6937,-3.6901,-3.6945,-3.6923,-3.6966,-3.6956,-3.703,-3.704,-3.7039,-3.7036,-3.7043,-3.7043,-3.7058,-3.7049,-3.7024,-3.7023,-3.7022,-3.7021,0,-3.6809,-3.6797,-3.6872,-3.6881,-3.6885,-3.694,-3.6948,-3.699,-3.6986,-3.7045,-3.7057,-3.7051,-3.7101,-3.709,-3.7143,-3.7137,-3.723,-3.7215,-3.7223,-3.722,-3.7287,-3.7282,-3.7503,-3.7532,-3.733,-3.7332,-3.7333,0,-3.6904,-3.6954,-3.6968,-3.6996,-3.7007,-3.7051,-3.7077,-3.7056,-3.7084,-3.7112,-3.7152,-3.7198,-3.7233,-3.7314,-3.7316,-3.7358,-3.7344,-3.7419,-3.735,-3.7357,-3.7347,-3.7345,-3.735,-3.7433,-3.7435,-3.7437,-3.7439,0,-3.7074,-3.7066,-3.7103,-3.714,-3.7171,-3.7199,-3.7224,-3.7249,-3.723,-3.7265,-3.7314,-3.7341,-3.7397,-3.7444,-3.7483,-3.7493,-3.7465,-3.7461,-3.7478,-3.7486,-3.7489,-3.749,-3.7262,-3.7456,-3.7454,-3.7453,-3.7452,-3.7451,-3.72,-3.7243,-3.726,-3.7304,-3.732,-3.7345,-3.7385,-3.7387,-3.7427,-3.747,-3.7456,-3.7513,-3.7534,-3.7584,-3.7599,-3.7645,-3.7617,-3.7642,-3.7649,-3.7656,-3.7664,-3.7482,-3.7652,-3.7651,-3.7651,-3.765,-3.765,0,-3.7369,-3.7378,-3.7419,-3.7454,-3.749,-3.7458,-3.7484,-3.7516,-3.7566,-3.7588,-3.7624,-3.7682,-3.7728,-3.7734,-3.7778,-3.7814,-3.7802,-3.7826,-3.7824,-3.7827,-3.7686,-3.7667,-3.7835,-3.7835,-3.7835,-3.7835,-3.7835,-3.7835,-3.7461,-3.7533,-3.7528,-3.7609,-3.7618,-3.7672,-3.769,-3.7714,-3.7731,-3.7797,-3.7835,-3.7838,-3.7855,-3.79,-3.7941,-3.7942,-3.7961,-3.7991,-3.7987,-3.7855,-3.7837,-3.7819,-3.7801,-3.7995,-3.7995,-3.8124,-3.8125,-3.8126]},{"header":{"parameterUnit":"m.s-1","parameterCategory":1,"la1":30.2991,"la2":30.254,"lo1":-89.0895,"lo2":-89.0444,"dy":0.0017,"dx":0.0017,"nx":28,"ny":28,"refTime":"2025-09-08T21:00:00:Z","depth":0,"parameterNumber":3,"parameterNumberName":"V-component_of_WINDS"},"data":[0,0,0,0,0,0,0,0,0,0,0,0,0,0,0,0,0,0,0,0,0,0,0,0,0,0,0,0,0,0,0,0,0,0,0,0,0,0,0,0,0,0,0,0,0,0,0,0,0,0,0,0,0,0,0,0,0,0,0.3447,0.3447,0,0.3467,0.3467,0.3467,0.3528,0.353,0.3531,0.3532,0.3549,0.3549,0.3548,0,0,0,0,0,0,0,0,0,0,0,0,0,0.346,0.3459,0.3447,0.3447,0.3448,0.3467,0.3467,0.3467,0.3528,0.353,0.3531,0.3533,0.355,0.3549,0.3548,0,0,0,0,0,0,0,0,0,0,0,0,0,0.3464,0.3459,0.3447,0.348,0.3484,0.3467,0.3467,0.3468,0.3528,0.353,0.3532,0.3534,0.355,0.3549,0.3548,0.35,0,0,0.3544,0.3543,0,0,0,0,0,0,0,0,0.3464,0.3464,0.3475,0.3478,0.3482,0.3497,0.3478,0.3478,0.3527,0.3511,0.3532,0.3535,0.353,0.3531,0.353,0.35,0.3501,0.3544,0.3543,0.3543,0.3542,0,0,0,0,0,0,0,0.3463,0.3463,0.3455,0.3475,0.3479,0.3493,0.3496,0.3478,0.3509,0.3512,0.3517,0.3519,0.3532,0.3531,0.3531,0.3501,0.3544,0.3543,0.3542,0.3542,0.3432,0.343,0,0,0,0,0,0,0.3459,0.3462,0.3454,0.3456,0.3478,0.3492,0.3495,0.349,0.3509,0.3514,0.3517,0.3521,0.3532,0.3532,0.3532,0.3475,0.3543,0.3541,0.3541,0.3435,0.3432,0.343,0,0,0,0,0,0,0.3459,0.3457,0.3454,0.346,0.3461,0.3489,0.3483,0.3489,0.3488,0.3513,0.3518,0.351,0.3534,0.3533,0.3507,0.3477,0.3541,0.354,0.3437,0.3434,0.3431,0.3363,0,0,0,0,0,0,0.3459,0.3457,0.3439,0.3459,0.346,0.3429,0.3482,0.3488,0.3486,0.3492,0.3507,0.3512,0.3535,0.3509,0.3506,0.3476,0.3539,0.344,0.3436,0.3432,0.3368,0.3357,0.3349,0,0,0,0,0,0.3459,0.3419,0.3438,0.3437,0.3439,0.3427,0.3428,0.3456,0.3484,0.3466,0.3481,0.3511,0.3481,0.3505,0.3503,0.3472,0.3442,0.3437,0.3432,0.3372,0.3359,0.3349,0,0,0,0,0,0,0.3393,0.3422,0.3444,0.3409,0.3415,0.3438,0.3416,0.3442,0.344,0.3445,0.348,0.3483,0.3451,0.346,0.3486,0.3426,0.3466,0.3461,0.3421,0.341,0.3401,0.3398,0.3538,0,0,0,0,0,0.3375,0.3364,0.339,0.3357,0.3359,0.3387,0.3383,0.3404,0.3411,0.3414,0.3428,0.3433,0.3425,0.3418,0.3412,0.337,0.3373,0.3348,0.3339,0.3331,0.3324,0.3302,0.329,0.3413,0.3414,0.3414,0,0,0.3337,0.3351,0.3342,0.3344,0.3351,0.3337,0.3388,0.3372,0.3362,0.3411,0.3387,0.3398,0.3406,0.3371,0.3356,0.3377,0.3292,0.3325,0.3318,0.3316,0.3295,0.3284,0.3273,0.341,0.3411,0.3411,0,0,0.3259,0.327,0.3243,0.325,0.3261,0.328,0.3273,0.3292,0.3301,0.3277,0.3314,0.3303,0.3288,0.3292,0.3292,0.3217,0.3244,0.3214,0.3163,0.3141,0.3131,0.3123,0.3094,0.3083,0.3209,0.3209,0.3208,0,0.3209,0.3191,0.3225,0.3207,0.3206,0.3252,0.3224,0.3229,0.3237,0.3234,0.3258,0.3241,0.3249,0.3216,0.3197,0.3197,0.3189,0.3211,0.313,0.3122,0.3114,0.3087,0.3077,0.3205,0.3205,0.3206,0.3206,0,0.3129,0.3116,0.3093,0.31,0.3097,0.3074,0.3103,0.3096,0.3119,0.3135,0.311,0.3123,0.312,0.3114,0.3135,0.3083,0.3095,0.3124,0.3164,0.3098,0.3073,0.3063,0.3199,0.3201,0.3202,0.3203,0,0,0.3007,0.3035,0.3026,0.3029,0.3046,0.3036,0.3015,0.3013,0.3005,0.301,0.2992,0.2979,0.3006,0.3006,0.3028,0.3009,0.2946,0.304,0.3041,0.302,0.2887,0.2863,0.2851,0.2966,0.2964,0.2963,0.2886,0,0.2932,0.2898,0.2928,0.2888,0.2875,0.292,0.2902,0.2909,0.2924,0.2915,0.2932,0.2921,0.2959,0.2959,0.2942,0.2958,0.292,0.2964,0.2947,0.2946,0.2941,0.2838,0.2813,0.274,0.2877,0.2875,0.2874,0,0.2838,0.284,0.2798,0.2817,0.2813,0.2796,0.2796,0.2788,0.2797,0.281,0.281,0.2839,0.2818,0.286,0.2832,0.2861,0.2857,0.2863,0.2861,0.2858,0.2904,0.283,0.2717,0.2705,0.2859,0.286,0.2861,0,0.2751,0.2742,0.2716,0.2718,0.2741,0.2727,0.2736,0.2747,0.2744,0.2745,0.2742,0.274,0.2738,0.2736,0.2762,0.2791,0.273,0.2774,0.2737,0.2736,0.272,0.272,0.2602,0.2722,0.2722,0.2722,0.2722,0,0.2662,0.2634,0.2677,0.2661,0.2631,0.2667,0.2636,0.2649,0.2659,0.2645,0.2684,0.267,0.2707,0.2697,0.2718,0.269,0.2689,0.2697,0.2703,0.2692,0.2691,0.2687,0.2692,0.2719,0.272,0.272,0.2721,0,0.2558,0.2586,0.256,0.2584,0.2589,0.2566,0.2585,0.2571,0.259,0.2571,0.2569,0.2598,0.2587,0.2615,0.2609,0.2623,0.2582,0.2597,0.2578,0.2582,0.2543,0.2545,0.2416,0.24,0.2532,0.2531,0.253,0,0.2497,0.2477,0.2499,0.2493,0.25,0.249,0.2487,0.2522,0.2517,0.2527,0.251,0.2504,0.25,0.2481,0.2501,0.2496,0.251,0.2465,0.2509,0.2499,0.2506,0.2505,0.2503,0.2455,0.2453,0.2452,0.2451,0,0.2386,0.2402,0.2397,0.2396,0.2392,0.2394,0.2398,0.239,0.2428,0.2421,0.2411,0.2408,0.2403,0.2395,0.2395,0.2403,0.2431,0.2437,0.2428,0.2415,0.2405,0.2407,0.255,0.2439,0.244,0.2441,0.2442,0.2442,0.2301,0.2284,0.2297,0.229,0.2298,0.23,0.2288,0.2305,0.2299,0.2297,0.2319,0.2304,0.2314,0.2317,0.2322,0.2311,0.2331,0.2318,0.2314,0.231,0.2302,0.2409,0.2311,0.2312,0.2312,0.2312,0.2313,0,0.2189,0.2201,0.2194,0.2199,0.2193,0.2224,0.223,0.2223,0.221,0.2218,0.2214,0.2203,0.2196,0.2215,0.2211,0.2198,0.2211,0.2195,0.2195,0.2196,0.2286,0.2293,0.2185,0.2185,0.2185,0.2185,0.2185,0.2185,0.2131,0.2104,0.2121,0.2099,0.211,0.2097,0.2098,0.2101,0.2107,0.2093,0.2088,0.2101,0.2113,0.211,0.2105,0.2111,0.2106,0.2085,0.2095,0.2178,0.219,0.2202,0.2209,0.2084,0.2084,0.2006,0.2005,0.2005]}]]